Location: Oberwangen
(47.4286°N, 8.9679°E)
Time: 07:00:40
(UTC+00:00)

Cosmos 2058 Rocket - Pass Details

Date: 20 June 2021
Orbit: 609 x 640 km, 82.5° (Epoch: 04 August)

Event Time Altitude Azimuth Distance (km) Brightness Sun altitude
Rises 22:56:24 0° 342° (NNW) 2,927 8.1 -18.8°
Reaches altitude 10° 22:58:48 10° 334° (NNW) 2,010 6.7 -18.9°
Maximum altitude 23:02:49 34° 270° (W) 1,026 4.2 -18.9°
Enters shadow 23:04:24 26° 229° (SW) 1,228 4.3 -19.0°
